Time,TemperatureF,DewpointF,PressureIn,WindDirection,WindDirectionDegrees,WindSpeedMPH,WindSpeedGustMPH,Humidity,HourlyPrecipIn,Conditions,Clouds,dailyrainin,SoftwareType,DateUTC
2013-04-13 00:00:00,63.1,61.1,29.68,SW,231,0.0,0.0,93,0.00,,---,0.00,VWS V14.01,2013-04-13 04:00:00,
2013-04-13 00:01:00,63.1,61.1,29.68,SW,222,0.0,0.0,93,0.00,,---,0.00,VWS V14.01,2013-04-13 04:01:00,
2013-04-13 00:06:00,63.0,60.9,29.68,WSW,250,0.0,0.0,93,0.00,,---,0.00,VWS V14.01,2013-04-13 04:06:00,
2013-04-13 00:11:00,63.0,60.9,29.71,WSW,245,0.0,0.0,93,0.00,,---,0.00,VWS V14.01,2013-04-13 04:11:00,
2013-04-13 00:16:00,63.0,60.9,29.71,SW,229,0.0,0.0,93,0.00,,---,0.00,VWS V14.01,2013-04-13 04:16:00,
2013-04-13 00:21:00,63.0,60.9,29.71,SW,224,0.0,0.0,93,0.00,,---,0.00,VWS V14.01,2013-04-13 04:21:00,
2013-04-13 00:26:00,63.0,60.9,29.71,SSW,192,0.0,0.0,93,0.00,,---,0.00,VWS V14.01,2013-04-13 04:26:00,
2013-04-13 00:31:00,63.0,60.9,29.71,SW,232,0.0,0.0,93,0.00,,---,0.00,VWS V14.01,2013-04-13 04:31:00,
2013-04-13 00:36:00,62.8,60.7,29.71,SW,221,0.0,0.0,93,0.00,,---,0.00,VWS V14.01,2013-04-13 04:36:00,
2013-04-13 00:41:00,62.8,60.7,29.71,WSW,243,0.0,0.0,93,0.00,,---,0.00,VWS V14.01,2013-04-13 04:41:00,
2013-04-13 00:46:00,62.6,60.5,29.71,West,268,0.0,0.0,93,0.00,,---,0.00,VWS V14.01,2013-04-13 04:46:00,
2013-04-13 00:51:00,62.6,60.5,29.71,SW,225,0.0,0.0,93,0.00,,---,0.00,VWS V14.01,2013-04-13 04:51:00,
2013-04-13 00:56:00,62.4,60.4,29.71,South,191,0.0,0.0,93,0.00,,---,0.00,VWS V14.01,2013-04-13 04:56:00,
2013-04-13 01:01:00,62.4,60.4,29.71,South,190,0.0,0.0,93,0.00,,---,0.00,VWS V14.01,2013-04-13 05:01:00,
2013-04-13 01:06:00,62.4,60.4,29.71,WSW,237,0.0,0.0,93,0.00,,---,0.00,VWS V14.01,2013-04-13 05:06:00,
2013-04-13 01:11:00,62.4,60.4,29.71,SSW,192,0.0,0.0,93,0.00,,---,0.00,VWS V14.01,2013-04-13 05:11:00,
2013-04-13 01:15:00,62.4,60.4,29.71,SW,234,0.0,0.0,93,0.00,,---,0.00,VWS V14.01,2013-04-13 05:15:00,
2013-04-13 01:20:00,62.4,60.4,29.71,SW,235,0.0,0.0,93,0.00,,---,0.00,VWS V14.01,2013-04-13 05:20:00,
2013-04-13 01:25:00,62.6,60.5,29.71,WSW,251,0.0,0.0,93,0.00,,---,0.00,VWS V14.01,2013-04-13 05:25:00,
2013-04-13 01:30:00,62.6,60.5,29.71,WSW,248,0.0,0.0,93,0.00,,---,0.00,VWS V14.01,2013-04-13 05:30:00,
2013-04-13 01:35:00,62.8,60.7,29.71,West,264,0.0,0.0,93,0.00,,---,0.00,VWS V14.01,2013-04-13 05:35:00,
2013-04-13 01:40:00,63.0,60.9,29.71,West,268,0.0,0.0,93,0.00,,---,0.00,VWS V14.01,2013-04-13 05:40:00,
2013-04-13 01:45:00,63.1,61.1,29.71,WSW,251,0.0,0.0,93,0.00,,---,0.00,VWS V14.01,2013-04-13 05:45:00,
2013-04-13 01:50:00,62.8,61.0,29.71,WSW,242,0.0,0.0,94,0.00,,---,0.00,VWS V14.01,2013-04-13 05:50:00,
2013-04-13 01:55:00,62.6,60.8,29.71,WSW,258,0.0,0.0,94,0.00,,---,0.00,VWS V14.01,2013-04-13 05:55:00,
2013-04-13 02:00:00,62.6,60.8,29.71,WSW,244,0.0,0.0,94,0.00,,---,0.00,VWS V14.01,2013-04-13 06:00:00,
2013-04-13 02:05:00,62.6,60.8,29.71,West,260,0.0,0.0,94,0.00,,---,0.00,VWS V14.01,2013-04-13 06:05:00,
2013-04-13 02:10:00,62.4,60.7,29.71,West,260,0.0,0.0,94,0.00,,---,0.00,VWS V14.01,2013-04-13 06:10:00,
2013-04-13 02:15:00,62.4,60.7,29.71,WSW,245,0.0,0.0,94,0.00,,---,0.00,VWS V14.01,2013-04-13 06:15:00,
2013-04-13 02:20:00,62.6,60.8,29.71,West,260,0.0,0.0,94,0.00,,---,0.00,VWS V14.01,2013-04-13 06:20:00,
2013-04-13 02:25:00,62.2,60.5,29.71,West,260,0.0,0.0,94,0.00,,---,0.00,VWS V14.01,2013-04-13 06:25:00,
2013-04-13 02:30:00,61.9,60.1,29.71,West,260,0.0,0.0,94,0.00,,---,0.00,VWS V14.01,2013-04-13 06:30:00,
2013-04-13 02:35:00,61.5,59.8,29.71,West,260,0.0,0.0,94,0.00,,---,0.00,VWS V14.01,2013-04-13 06:35:00,
2013-04-13 02:40:00,61.3,59.6,29.71,WSW,248,0.0,0.0,94,0.00,,---,0.00,VWS V14.01,2013-04-13 06:40:00,
2013-04-13 02:45:00,61.3,59.6,29.71,SW,233,0.0,0.0,94,0.00,,---,0.00,VWS V14.01,2013-04-13 06:45:00,
2013-04-13 02:50:00,61.3,59.6,29.71,SSW,213,0.0,0.0,94,0.00,,---,0.00,VWS V14.01,2013-04-13 06:50:00,
2013-04-13 02:55:00,61.3,59.6,29.71,WSW,248,0.0,0.0,94,0.00,,---,0.00,VWS V14.01,2013-04-13 06:55:00,
2013-04-13 03:01:00,61.3,59.3,29.71,WSW,240,0.0,0.0,93,0.00,,---,0.00,VWS V14.01,2013-04-13 07:01:00,
2013-04-13 03:05:00,61.3,59.3,29.71,SW,216,0.0,0.0,93,0.00,,---,0.00,VWS V14.01,2013-04-13 07:05:00,
2013-04-13 03:11:00,61.3,59.3,29.71,WSW,257,0.0,0.0,93,0.00,,---,0.00,VWS V14.01,2013-04-13 07:11:00,
2013-04-13 03:16:00,61.2,59.1,29.71,WSW,257,0.0,0.0,93,0.00,,---,0.00,VWS V14.01,2013-04-13 07:16:00,
2013-04-13 03:21:00,61.0,59.0,29.71,SSW,199,0.0,0.0,93,0.00,,---,0.00,VWS V14.01,2013-04-13 07:21:00,
2013-04-13 03:26:00,61.0,59.0,29.71,WSW,244,0.0,0.0,93,0.00,,---,0.00,VWS V14.01,2013-04-13 07:26:00,
2013-04-13 03:31:00,61.0,59.0,29.71,WNW,291,0.0,0.0,93,0.00,,---,0.00,VWS V14.01,2013-04-13 07:31:00,
2013-04-13 03:36:00,61.0,59.0,29.71,WSW,257,0.0,0.0,93,0.00,,---,0.00,VWS V14.01,2013-04-13 07:36:00,
2013-04-13 03:41:00,61.2,59.1,29.71,West,263,0.0,0.0,93,0.00,,---,0.00,VWS V14.01,2013-04-13 07:41:00,
2013-04-13 03:46:00,61.2,59.1,29.71,WSW,242,0.0,0.0,93,0.00,,---,0.00,VWS V14.01,2013-04-13 07:46:00,
2013-04-13 03:51:00,61.2,59.1,29.71,WSW,238,0.0,0.0,93,0.00,,---,0.00,VWS V14.01,2013-04-13 07:51:00,
2013-04-13 03:56:00,61.2,59.1,29.74,WSW,240,0.0,0.0,93,0.00,,---,0.00,VWS V14.01,2013-04-13 07:56:00,
2013-04-13 04:01:00,61.0,59.0,29.74,SW,216,0.0,0.0,93,0.00,,---,0.00,VWS V14.01,2013-04-13 08:01:00,
2013-04-13 04:06:00,61.0,59.0,29.74,WSW,251,0.0,0.0,93,0.00,,---,0.00,VWS V14.01,2013-04-13 08:06:00,
2013-04-13 04:11:00,60.8,58.8,29.74,WSW,243,0.0,0.0,93,0.00,,---,0.00,VWS V14.01,2013-04-13 08:11:00,
2013-04-13 04:17:00,60.8,58.8,29.74,WNW,284,0.0,0.0,93,0.00,,---,0.00,VWS V14.01,2013-04-13 08:17:00,
2013-04-13 04:22:00,61.0,59.0,29.74,West,261,0.0,0.0,93,0.00,,---,0.00,VWS V14.01,2013-04-13 08:22:00,
2013-04-13 04:27:00,61.0,59.0,29.74,WSW,256,0.0,0.0,93,0.00,,---,0.00,VWS V14.01,2013-04-13 08:27:00,
2013-04-13 04:32:00,60.8,58.8,29.74,WSW,256,0.0,0.0,93,0.00,,---,0.00,VWS V14.01,2013-04-13 08:32:00,
2013-04-13 04:37:00,60.6,58.9,29.74,WSW,256,0.0,0.0,94,0.00,,---,0.00,VWS V14.01,2013-04-13 08:37:00,
2013-04-13 04:42:00,60.8,58.8,29.74,WSW,256,0.0,0.0,93,0.00,,---,0.00,VWS V14.01,2013-04-13 08:42:00,
2013-04-13 04:47:00,60.6,58.6,29.74,WSW,256,0.0,0.0,93,0.00,,---,0.00,VWS V14.01,2013-04-13 08:47:00,
2013-04-13 04:52:00,60.4,58.4,29.74,WSW,256,0.0,0.0,93,0.00,,---,0.00,VWS V14.01,2013-04-13 08:52:00,
2013-04-13 04:57:00,60.3,58.2,29.74,WSW,256,0.0,0.0,93,0.00,,---,0.00,VWS V14.01,2013-04-13 08:57:00,
2013-04-13 05:02:00,59.9,57.9,29.74,WSW,256,0.0,0.0,93,0.00,,---,0.00,VWS V14.01,2013-04-13 09:02:00,
2013-04-13 05:07:00,59.7,57.7,29.77,WSW,256,0.0,0.0,93,0.00,,---,0.00,VWS V14.01,2013-04-13 09:07:00,
2013-04-13 05:12:00,59.9,57.9,29.77,West,271,0.0,0.0,93,0.00,,---,0.00,VWS V14.01,2013-04-13 09:12:00,
2013-04-13 05:17:00,59.9,57.9,29.77,West,260,0.0,0.0,93,0.00,,---,0.00,VWS V14.01,2013-04-13 09:17:00,
2013-04-13 05:22:00,59.9,57.9,29.77,West,263,0.0,0.0,93,0.00,,---,0.00,VWS V14.01,2013-04-13 09:22:00,
2013-04-13 05:27:00,59.9,57.9,29.77,WNW,285,0.0,0.0,93,0.00,,---,0.00,VWS V14.01,2013-04-13 09:27:00,
2013-04-13 05:32:00,60.1,58.0,29.77,WNW,285,0.0,0.0,93,0.00,,---,0.00,VWS V14.01,2013-04-13 09:32:00,
2013-04-13 05:38:00,60.3,58.2,29.77,WNW,285,0.0,0.0,93,0.00,,---,0.00,VWS V14.01,2013-04-13 09:38:00,
2013-04-13 05:43:00,60.4,58.4,29.77,WNW,285,0.0,0.0,93,0.00,,---,0.00,VWS V14.01,2013-04-13 09:43:00,
2013-04-13 05:48:00,60.6,58.6,29.77,WNW,285,0.0,0.0,93,0.00,,---,0.00,VWS V14.01,2013-04-13 09:48:00,
2013-04-13 05:53:00,61.0,59.0,29.77,WNW,287,0.0,0.0,93,0.00,,---,0.00,VWS V14.01,2013-04-13 09:53:00,
2013-04-13 05:58:00,61.0,59.0,29.77,WNW,288,0.0,0.0,93,0.00,,---,0.00,VWS V14.01,2013-04-13 09:58:00,
2013-04-13 06:03:00,61.0,59.0,29.77,WNW,302,0.0,0.0,93,0.00,,---,0.00,VWS V14.01,2013-04-13 10:03:00,
2013-04-13 06:08:00,61.0,59.0,29.80,NW,312,0.0,0.0,93,0.00,,---,0.00,VWS V14.01,2013-04-13 10:08:00,
2013-04-13 06:13:00,60.8,58.5,29.80,NNW,334,0.0,0.0,92,0.00,,---,0.00,VWS V14.01,2013-04-13 10:13:00,
2013-04-13 06:18:00,60.6,58.3,29.80,NNW,341,0.0,0.0,92,0.00,,---,0.00,VWS V14.01,2013-04-13 10:18:00,
2013-04-13 06:23:00,60.4,57.8,29.80,NNW,341,0.0,0.0,91,0.00,,---,0.00,VWS V14.01,2013-04-13 10:23:00,
2013-04-13 06:28:00,60.3,57.0,29.80,NNW,339,0.0,0.0,89,0.00,,---,0.00,VWS V14.01,2013-04-13 10:28:00,
2013-04-13 06:33:00,60.1,56.5,29.80,North,350,0.0,0.0,88,0.00,,---,0.00,VWS V14.01,2013-04-13 10:33:00,
2013-04-13 06:38:00,60.1,55.6,29.80,North,3,0.0,0.0,85,0.00,,---,0.00,VWS V14.01,2013-04-13 10:38:00,
2013-04-13 06:43:00,59.9,54.7,29.80,North,3,0.0,0.0,83,0.00,,---,0.00,VWS V14.01,2013-04-13 10:43:00,
2013-04-13 06:48:00,59.7,54.2,29.80,North,3,0.0,0.0,82,0.00,,---,0.00,VWS V14.01,2013-04-13 10:48:00,
2013-04-13 06:53:00,59.7,53.5,29.80,North,2,0.0,0.0,80,0.00,,---,0.00,VWS V14.01,2013-04-13 10:53:00,
2013-04-13 06:59:00,59.7,52.9,29.80,NW,317,0.0,2.7,78,0.00,,---,0.00,VWS V14.01,2013-04-13 10:59:00,
2013-04-13 07:04:00,59.7,51.8,29.80,North,0,0.0,0.0,75,0.00,,---,0.00,VWS V14.01,2013-04-13 11:04:00,
2013-04-13 07:09:00,59.9,50.5,29.80,NW,322,0.0,0.0,71,0.00,,---,0.00,VWS V14.01,2013-04-13 11:09:00,
2013-04-13 07:14:00,59.7,49.5,29.80,North,353,0.0,0.0,69,0.00,,---,0.00,VWS V14.01,2013-04-13 11:14:00,
2013-04-13 07:19:00,59.7,49.2,29.80,North,353,0.0,0.0,68,0.00,,---,0.00,VWS V14.01,2013-04-13 11:19:00,
2013-04-13 07:24:00,59.7,48.4,29.83,North,353,0.0,0.0,66,0.00,,---,0.00,VWS V14.01,2013-04-13 11:24:00,
2013-04-13 07:29:00,59.9,48.1,29.83,North,353,0.0,2.2,65,0.00,,---,0.00,VWS V14.01,2013-04-13 11:29:00,
2013-04-13 07:34:00,60.1,47.5,29.83,NNW,329,0.0,2.7,63,0.00,,---,0.00,VWS V14.01,2013-04-13 11:34:00,
2013-04-13 07:39:00,60.1,46.6,29.83,NNW,331,0.0,6.3,61,0.00,,---,0.00,VWS V14.01,2013-04-13 11:39:00,
2013-04-13 07:44:00,60.3,45.9,29.83,North,353,0.0,0.0,59,0.00,,---,0.00,VWS V14.01,2013-04-13 11:44:00,
2013-04-13 07:49:00,60.4,45.2,29.83,NNW,339,0.0,0.0,57,0.00,,---,0.00,VWS V14.01,2013-04-13 11:49:00,
2013-04-13 07:54:00,60.4,44.2,29.83,NNW,336,0.0,0.0,55,0.00,,---,0.00,VWS V14.01,2013-04-13 11:54:00,
2013-04-13 07:59:00,60.4,43.7,29.83,NNW,343,0.0,0.0,54,0.00,,---,0.00,VWS V14.01,2013-04-13 11:59:00,
2013-04-13 08:04:00,60.6,43.4,29.83,North,353,0.0,0.0,53,0.00,,---,0.00,VWS V14.01,2013-04-13 12:04:00,
2013-04-13 08:09:00,60.8,42.6,29.83,North,0,0.0,0.0,51,0.00,,---,0.00,VWS V14.01,2013-04-13 12:09:00,
2013-04-13 08:14:00,61.0,42.2,29.83,NNE,13,0.0,0.0,50,0.00,,---,0.00,VWS V14.01,2013-04-13 12:14:00,
2013-04-13 08:19:00,61.2,41.9,29.83,NNW,333,0.0,0.0,49,0.00,,---,0.00,VWS V14.01,2013-04-13 12:19:00,
2013-04-13 08:24:00,61.3,41.5,29.83,NNW,338,3.4,3.4,48,0.00,,---,0.00,VWS V14.01,2013-04-13 12:24:00,
2013-04-13 08:29:00,61.5,42.2,29.83,NNW,348,0.0,0.0,49,0.00,,---,0.00,VWS V14.01,2013-04-13 12:29:00,
2013-04-13 08:35:00,61.5,42.2,29.83,North,0,0.0,2.2,49,0.00,,---,0.00,VWS V14.01,2013-04-13 12:35:00,
2013-04-13 08:40:00,61.7,42.4,29.85,North,0,0.0,0.0,49,0.00,,---,0.00,VWS V14.01,2013-04-13 12:40:00,
2013-04-13 08:45:00,61.9,43.6,29.85,NNW,338,0.0,5.8,51,0.00,,---,0.00,VWS V14.01,2013-04-13 12:45:00,
2013-04-13 08:50:00,62.1,44.2,29.85,North,0,6.7,6.7,52,0.00,,---,0.00,VWS V14.01,2013-04-13 12:50:00,
2013-04-13 08:55:00,62.2,44.9,29.85,ENE,73,4.7,4.7,53,0.00,,---,0.00,VWS V14.01,2013-04-13 12:55:00,
2013-04-13 09:00:00,62.6,46.2,29.85,NNW,333,5.4,8.1,55,0.00,,---,0.00,VWS V14.01,2013-04-13 13:00:00,
2013-04-13 09:23:00,62.4,50.1,29.85,North,2,0.0,2.7,64,0.00,,---,0.00,VWS V14.01,2013-04-13 13:23:00,
2013-04-13 09:28:00,62.4,50.5,29.85,ENE,76,0.0,0.0,65,0.00,,---,0.00,VWS V14.01,2013-04-13 13:28:00,
2013-04-13 09:33:00,62.6,51.1,29.85,ENE,76,0.0,0.0,66,0.00,,---,0.00,VWS V14.01,2013-04-13 13:33:00,
2013-04-13 09:38:00,62.6,51.5,29.85,NNW,333,0.0,0.0,67,0.00,,---,0.00,VWS V14.01,2013-04-13 13:38:00,
2013-04-13 09:43:00,62.6,51.9,29.85,NE,34,0.0,0.0,68,0.00,,---,0.00,VWS V14.01,2013-04-13 13:43:00,
2013-04-13 09:48:00,62.6,51.9,29.85,North,353,4.0,4.0,68,0.00,,---,0.00,VWS V14.01,2013-04-13 13:48:00,
2013-04-13 09:53:00,62.6,52.3,29.85,NNE,31,0.0,2.2,69,0.00,,---,0.00,VWS V14.01,2013-04-13 13:53:00,
2013-04-13 09:58:00,62.4,52.1,29.85,North,5,5.4,5.4,69,0.00,,---,0.00,VWS V14.01,2013-04-13 13:58:00,
2013-04-13 10:03:00,62.2,52.0,29.85,North,11,5.4,5.4,69,0.00,,---,0.00,VWS V14.01,2013-04-13 14:03:00,
2013-04-13 10:09:00,61.9,52.0,29.88,NE,54,0.0,5.4,70,0.00,,---,0.00,VWS V14.01,2013-04-13 14:09:00,
2013-04-13 10:14:00,61.7,51.4,29.88,ENE,68,4.7,8.1,69,0.00,,---,0.00,VWS V14.01,2013-04-13 14:14:00,
2013-04-13 10:19:00,61.7,51.4,29.88,NE,48,0.0,0.0,69,0.00,,---,0.00,VWS V14.01,2013-04-13 14:19:00,
2013-04-13 10:24:00,61.7,51.4,29.88,ENE,70,3.4,6.3,69,0.00,,---,0.00,VWS V14.01,2013-04-13 14:24:00,
2013-04-13 10:29:00,61.9,51.6,29.88,ESE,107,4.0,4.0,69,0.00,,---,0.00,VWS V14.01,2013-04-13 14:29:00,
2013-04-13 10:34:00,62.1,51.8,29.88,ENE,61,5.4,5.4,69,0.00,,---,0.00,VWS V14.01,2013-04-13 14:34:00,
2013-04-13 10:39:00,62.2,51.6,29.88,East,81,5.4,5.4,68,0.00,,---,0.00,VWS V14.01,2013-04-13 14:39:00,
2013-04-13 10:44:00,62.8,51.3,29.88,ESE,115,4.7,5.8,66,0.00,,---,0.00,VWS V14.01,2013-04-13 14:44:00,
2013-04-13 10:49:00,63.1,50.8,29.88,ENE,78,0.0,3.1,64,0.00,,---,0.00,VWS V14.01,2013-04-13 14:49:00,
2013-04-13 10:54:00,63.3,51.0,29.88,ENE,71,4.7,6.3,64,0.00,,---,0.00,VWS V14.01,2013-04-13 14:54:00,
2013-04-13 10:59:00,63.3,50.1,29.88,NNE,29,9.4,9.4,62,0.00,,---,0.00,VWS V14.01,2013-04-13 14:59:00,
2013-04-13 11:04:00,63.7,49.5,29.88,NNE,15,0.0,2.7,60,0.00,,---,0.00,VWS V14.01,2013-04-13 15:04:00,
2013-04-13 11:09:00,64.0,49.4,29.88,SE,139,0.0,5.8,59,0.00,,---,0.00,VWS V14.01,2013-04-13 15:09:00,
2013-04-13 11:14:00,64.2,49.2,29.88,East,88,0.0,0.0,58,0.00,,---,0.00,VWS V14.01,2013-04-13 15:14:00,
2013-04-13 11:20:00,64.0,48.0,29.88,East,93,4.0,8.1,56,0.00,,---,0.00,VWS V14.01,2013-04-13 15:20:00,
2013-04-13 11:25:00,64.2,48.2,29.88,East,93,0.0,0.0,56,0.00,,---,0.00,VWS V14.01,2013-04-13 15:25:00,
2013-04-13 11:30:00,64.6,48.5,29.88,SSE,167,0.0,0.0,56,0.00,,---,0.00,VWS V14.01,2013-04-13 15:30:00,
2013-04-13 11:35:00,64.8,48.2,29.88,East,88,0.0,0.0,55,0.00,,---,0.00,VWS V14.01,2013-04-13 15:35:00,
2013-04-13 11:40:00,64.4,47.9,29.88,East,99,0.0,0.0,55,0.00,,---,0.00,VWS V14.01,2013-04-13 15:40:00,
2013-04-13 11:45:00,64.4,47.9,29.88,ESE,116,0.0,0.0,55,0.00,,---,0.00,VWS V14.01,2013-04-13 15:45:00,
2013-04-13 11:50:00,64.4,48.4,29.88,ESE,108,0.0,0.0,56,0.00,,---,0.00,VWS V14.01,2013-04-13 15:50:00,
2013-04-13 11:55:00,64.4,48.4,29.88,East,88,0.0,0.0,56,0.00,,---,0.00,VWS V14.01,2013-04-13 15:55:00,
2013-04-13 12:00:00,64.4,47.4,29.88,ESE,104,0.0,0.0,54,0.00,,---,0.00,VWS V14.01,2013-04-13 16:00:00,
2013-04-13 12:05:00,64.4,47.4,29.88,ENE,67,0.0,0.0,54,0.00,,---,0.00,VWS V14.01,2013-04-13 16:05:00,
2013-04-13 12:10:00,64.6,47.6,29.88,East,92,0.0,0.0,54,0.00,,---,0.00,VWS V14.01,2013-04-13 16:10:00,
2013-04-13 12:15:00,64.8,47.8,29.88,SSE,154,0.0,0.0,54,0.00,,---,0.00,VWS V14.01,2013-04-13 16:15:00,
2013-04-13 12:20:00,64.9,47.4,29.88,SE,136,0.0,0.0,53,0.00,,---,0.00,VWS V14.01,2013-04-13 16:20:00,
2013-04-13 12:25:00,64.8,46.7,29.88,East,79,0.0,0.0,52,0.00,,---,0.00,VWS V14.01,2013-04-13 16:25:00,
2013-04-13 12:30:00,64.8,46.2,29.88,East,96,0.0,0.0,51,0.00,,---,0.00,VWS V14.01,2013-04-13 16:30:00,
2013-04-13 12:35:00,64.9,46.4,29.88,ESE,111,0.0,0.0,51,0.00,,---,0.00,VWS V14.01,2013-04-13 16:35:00,
2013-04-13 12:40:00,65.1,46.6,29.91,ENE,76,0.0,0.0,51,0.00,,---,0.00,VWS V14.01,2013-04-13 16:40:00,
2013-04-13 12:45:00,64.9,46.4,29.91,ESE,120,0.0,0.0,51,0.00,,---,0.00,VWS V14.01,2013-04-13 16:45:00,
2013-04-13 12:50:00,65.7,47.6,29.91,SSE,149,0.0,0.0,52,0.00,,---,0.00,VWS V14.01,2013-04-13 16:50:00,
2013-04-13 12:55:00,65.8,47.7,29.91,ESE,104,0.0,0.0,52,0.00,,---,0.00,VWS V14.01,2013-04-13 16:55:00,
2013-04-13 13:00:00,65.8,47.2,29.91,East,83,0.0,2.2,51,0.00,,---,0.00,VWS V14.01,2013-04-13 17:00:00,
2013-04-13 13:05:00,65.8,47.2,29.91,ESE,114,0.0,0.0,51,0.00,,---,0.00,VWS V14.01,2013-04-13 17:05:00,
2013-04-13 13:10:00,65.8,46.7,29.91,East,91,0.0,4.0,50,0.00,,---,0.00,VWS V14.01,2013-04-13 17:10:00,
2013-04-13 13:15:00,65.7,46.0,29.91,SE,129,4.0,4.0,49,0.00,,---,0.00,VWS V14.01,2013-04-13 17:15:00,
2013-04-13 13:20:00,66.0,46.9,29.91,SSE,163,0.0,3.1,50,0.00,,---,0.00,VWS V14.01,2013-04-13 17:20:00,
2013-04-13 13:25:00,66.2,47.0,29.91,ESE,105,0.0,4.0,50,0.00,,---,0.00,VWS V14.01,2013-04-13 17:25:00,
2013-04-13 13:30:00,66.2,47.0,29.91,ESE,103,4.0,6.3,50,0.00,,---,0.00,VWS V14.01,2013-04-13 17:30:00,
2013-04-13 13:35:00,66.4,47.2,29.91,South,173,12.4,12.4,50,0.00,,---,0.00,VWS V14.01,2013-04-13 17:35:00,
2013-04-13 13:41:00,66.4,47.7,29.88,South,179,5.4,5.4,51,0.00,,---,0.00,VWS V14.01,2013-04-13 17:41:00,
2013-04-13 13:46:00,66.7,48.1,29.88,ESE,106,7.4,7.4,51,0.00,,---,0.00,VWS V14.01,2013-04-13 17:46:00,
2013-04-13 13:51:00,66.7,48.6,29.88,SE,128,8.1,8.1,52,0.00,,---,0.00,VWS V14.01,2013-04-13 17:51:00,
2013-04-13 13:56:00,66.4,47.7,29.91,South,171,8.1,8.1,51,0.00,,---,0.00,VWS V14.01,2013-04-13 17:56:00,
2013-04-13 14:01:00,66.2,47.6,29.91,South,184,11.4,11.4,51,0.00,,---,0.00,VWS V14.01,2013-04-13 18:01:00,
2013-04-13 14:06:00,66.4,47.7,29.91,SE,140,6.0,6.3,51,0.00,,---,0.00,VWS V14.01,2013-04-13 18:06:00,
2013-04-13 14:11:00,66.2,47.6,29.88,ESE,116,6.7,6.7,51,0.00,,---,0.00,VWS V14.01,2013-04-13 18:11:00,
2013-04-13 14:16:00,66.4,47.7,29.88,ESE,120,12.4,12.4,51,0.00,,---,0.00,VWS V14.01,2013-04-13 18:16:00,
2013-04-13 14:21:00,66.2,47.0,29.88,SSE,152,6.0,6.0,50,0.00,,---,0.00,VWS V14.01,2013-04-13 18:21:00,
2013-04-13 14:27:00,66.2,47.0,29.88,ESE,104,6.0,6.0,50,0.00,,---,0.00,VWS V14.01,2013-04-13 18:27:00,
2013-04-13 14:32:00,66.4,47.2,29.88,ESE,114,6.7,6.7,50,0.00,,---,0.00,VWS V14.01,2013-04-13 18:32:00,
2013-04-13 14:37:00,66.0,46.9,29.88,ESE,109,11.4,11.4,50,0.00,,---,0.00,VWS V14.01,2013-04-13 18:37:00,
2013-04-13 14:42:00,65.8,46.7,29.88,SE,139,3.4,3.4,50,0.00,,---,0.00,VWS V14.01,2013-04-13 18:42:00,
2013-04-13 14:47:00,66.0,46.9,29.88,SSE,165,0.0,0.0,50,0.00,,---,0.00,VWS V14.01,2013-04-13 18:47:00,
2013-04-13 14:52:00,66.0,46.9,29.88,South,173,0.0,0.0,50,0.00,,---,0.00,VWS V14.01,2013-04-13 18:52:00,
2013-04-13 14:57:00,66.0,46.9,29.88,SE,129,0.0,0.0,50,0.00,,---,0.00,VWS V14.01,2013-04-13 18:57:00,
2013-04-13 15:02:00,65.8,46.7,29.88,SE,134,0.0,0.0,50,0.00,,---,0.00,VWS V14.01,2013-04-13 19:02:00,
2013-04-13 15:07:00,65.8,46.7,29.88,NE,40,0.0,0.0,50,0.00,,---,0.00,VWS V14.01,2013-04-13 19:07:00,
2013-04-13 15:12:00,65.7,46.5,29.88,East,97,0.0,0.0,50,0.00,,---,0.00,VWS V14.01,2013-04-13 19:12:00,
2013-04-13 15:17:00,65.5,46.4,29.88,South,174,0.0,0.0,50,0.00,,---,0.00,VWS V14.01,2013-04-13 19:17:00,
2013-04-13 15:22:00,65.5,46.4,29.88,SE,142,0.0,0.0,50,0.00,,---,0.00,VWS V14.01,2013-04-13 19:22:00,
2013-04-13 15:27:00,65.3,46.2,29.88,SE,141,0.0,0.0,50,0.00,,---,0.00,VWS V14.01,2013-04-13 19:27:00,
2013-04-13 15:32:00,64.8,45.2,29.88,East,88,0.0,0.0,49,0.00,,---,0.00,VWS V14.01,2013-04-13 19:32:00,
2013-04-13 15:37:00,64.8,45.2,29.88,East,82,0.0,0.0,49,0.00,,---,0.00,VWS V14.01,2013-04-13 19:37:00,
2013-04-13 15:42:00,64.4,44.3,29.88,ESE,117,0.0,0.0,48,0.00,,---,0.00,VWS V14.01,2013-04-13 19:42:00,
2013-04-13 15:47:00,64.4,44.8,29.88,SSE,163,0.0,0.0,49,0.00,,---,0.00,VWS V14.01,2013-04-13 19:47:00,
2013-04-13 15:52:00,64.2,44.7,29.88,ESE,123,0.0,0.0,49,0.00,,---,0.00,VWS V14.01,2013-04-13 19:52:00,
2013-04-13 15:57:00,64.2,44.7,29.88,SSE,153,0.0,0.0,49,0.00,,---,0.00,VWS V14.01,2013-04-13 19:57:00,
2013-04-13 16:02:00,64.0,44.5,29.88,ENE,78,0.0,0.0,49,0.00,,---,0.00,VWS V14.01,2013-04-13 20:02:00,
2013-04-13 16:07:00,63.9,44.3,29.88,SSE,147,0.0,0.0,49,0.00,,---,0.00,VWS V14.01,2013-04-13 20:07:00,
2013-04-13 16:12:00,63.9,44.3,29.88,ESE,123,0.0,0.0,49,0.00,,---,0.00,VWS V14.01,2013-04-13 20:12:00,
2013-04-13 16:17:00,63.5,44.0,29.88,ENE,72,0.0,0.0,49,0.00,,---,0.00,VWS V14.01,2013-04-13 20:17:00,
2013-04-13 16:22:00,63.7,44.2,29.88,ESE,122,0.0,0.0,49,0.00,,---,0.00,VWS V14.01,2013-04-13 20:22:00,
2013-04-13 16:28:00,63.5,44.5,29.88,East,96,0.0,0.0,50,0.00,,---,0.00,VWS V14.01,2013-04-13 20:28:00,
2013-04-13 16:32:00,63.3,44.4,29.88,ENE,71,0.0,0.0,50,0.00,,---,0.00,VWS V14.01,2013-04-13 20:32:00,
2013-04-13 16:37:00,63.1,43.7,29.88,East,82,0.0,0.0,49,0.00,,---,0.00,VWS V14.01,2013-04-13 20:37:00,
2013-04-13 16:42:00,63.0,43.5,29.88,East,98,0.0,0.0,49,0.00,,---,0.00,VWS V14.01,2013-04-13 20:42:00,
2013-04-13 16:47:00,63.1,44.2,29.88,ENE,69,0.0,0.0,50,0.00,,---,0.00,VWS V14.01,2013-04-13 20:47:00,
2013-04-13 16:52:00,63.1,44.2,29.88,SE,127,0.0,0.0,50,0.00,,---,0.00,VWS V14.01,2013-04-13 20:52:00,
2013-04-13 16:57:00,63.1,44.2,29.88,SSE,162,0.0,0.0,50,0.00,,---,0.00,VWS V14.01,2013-04-13 20:57:00,
2013-04-13 17:02:00,63.0,44.0,29.88,East,94,0.0,0.0,50,0.00,,---,0.00,VWS V14.01,2013-04-13 21:02:00,
2013-04-13 17:07:00,62.6,43.7,29.88,ESE,118,0.0,0.0,50,0.00,,---,0.00,VWS V14.01,2013-04-13 21:07:00,
2013-04-13 17:12:00,62.6,43.7,29.88,ESE,115,0.0,0.0,50,0.00,,---,0.00,VWS V14.01,2013-04-13 21:12:00,
2013-04-13 17:17:00,62.2,43.9,29.88,South,174,0.0,0.0,51,0.00,,---,0.00,VWS V14.01,2013-04-13 21:17:00,
2013-04-13 17:22:00,62.2,44.4,29.88,SSE,154,0.0,0.0,52,0.00,,---,0.00,VWS V14.01,2013-04-13 21:22:00,
2013-04-13 17:27:00,61.9,44.1,29.88,ENE,77,0.0,0.0,52,0.00,,---,0.00,VWS V14.01,2013-04-13 21:27:00,
2013-04-13 17:32:00,62.1,44.8,29.88,East,90,0.0,0.0,53,0.00,,---,0.00,VWS V14.01,2013-04-13 21:32:00,
2013-04-13 17:37:00,62.1,44.2,29.88,East,81,0.0,0.0,52,0.00,,---,0.00,VWS V14.01,2013-04-13 21:37:00,
2013-04-13 17:42:00,61.9,44.6,29.88,ENE,66,0.0,0.0,53,0.00,,---,0.00,VWS V14.01,2013-04-13 21:42:00,
2013-04-13 17:47:00,62.1,44.8,29.88,ESE,102,0.0,0.0,53,0.00,,---,0.00,VWS V14.01,2013-04-13 21:47:00,
2013-04-13 17:52:00,61.9,44.6,29.88,SE,139,0.0,0.0,53,0.00,,---,0.00,VWS V14.01,2013-04-13 21:52:00,
2013-04-13 17:57:00,61.9,44.6,29.88,ENE,76,0.0,0.0,53,0.00,,---,0.00,VWS V14.01,2013-04-13 21:57:00,
2013-04-13 18:02:00,61.7,44.4,29.88,East,100,10.7,10.7,53,0.00,,---,0.00,VWS V14.01,2013-04-13 22:02:00,
2013-04-13 18:07:00,61.5,44.2,29.88,East,83,10.7,10.7,53,0.00,,---,0.00,VWS V14.01,2013-04-13 22:07:00,
2013-04-13 18:12:00,61.5,44.7,29.88,East,96,12.1,12.1,54,0.00,,---,0.00,VWS V14.01,2013-04-13 22:12:00,
2013-04-13 18:17:00,61.5,44.7,29.88,East,100,7.4,7.4,54,0.00,,---,0.00,VWS V14.01,2013-04-13 22:17:00,
2013-04-13 18:22:00,61.3,44.6,29.88,ESE,111,4.0,6.3,54,0.00,,---,0.00,VWS V14.01,2013-04-13 22:22:00,
2013-04-13 18:27:00,61.2,43.9,29.88,SE,136,9.4,9.4,53,0.00,,---,0.00,VWS V14.01,2013-04-13 22:27:00,
2013-04-13 18:32:00,61.2,44.4,29.88,East,87,12.1,12.1,54,0.00,,---,0.00,VWS V14.01,2013-04-13 22:32:00,
2013-04-13 18:37:00,61.0,44.2,29.88,ENE,75,6.0,6.0,54,0.00,,---,0.00,VWS V14.01,2013-04-13 22:37:00,
2013-04-13 18:42:00,60.8,44.1,29.88,ESE,108,9.4,9.4,54,0.00,,---,0.00,VWS V14.01,2013-04-13 22:42:00,
2013-04-13 18:47:00,60.6,43.9,29.88,East,87,4.7,4.7,54,0.00,,---,0.00,VWS V14.01,2013-04-13 22:47:00,
2013-04-13 18:52:00,60.6,43.9,29.91,ESE,117,8.1,8.1,54,0.00,,---,0.00,VWS V14.01,2013-04-13 22:52:00,
2013-04-13 18:57:00,60.4,43.7,29.91,ENE,71,11.4,11.4,54,0.00,,---,0.00,VWS V14.01,2013-04-13 22:57:00,
2013-04-13 19:02:00,60.3,43.6,29.91,ESE,104,4.7,5.8,54,0.00,,---,0.00,VWS V14.01,2013-04-13 23:02:00,
2013-04-13 19:07:00,60.3,44.0,29.91,East,87,8.1,8.1,55,0.00,,---,0.00,VWS V14.01,2013-04-13 23:07:00,
2013-04-13 19:12:00,60.1,43.4,29.91,NNE,20,4.7,4.7,54,0.00,,---,0.00,VWS V14.01,2013-04-13 23:12:00,
2013-04-13 19:17:00,60.1,43.4,29.91,East,96,4.0,5.4,54,0.00,,---,0.00,VWS V14.01,2013-04-13 23:17:00,
2013-04-13 19:22:00,59.9,43.2,29.91,SE,128,8.1,8.1,54,0.00,,---,0.00,VWS V14.01,2013-04-13 23:22:00,
2013-04-13 19:27:00,59.9,43.7,29.91,SE,146,12.4,12.4,55,0.00,,---,0.00,VWS V14.01,2013-04-13 23:27:00,
2013-04-13 19:32:00,59.9,43.7,29.91,ESE,112,4.7,4.7,55,0.00,,---,0.00,VWS V14.01,2013-04-13 23:32:00,
2013-04-13 19:37:00,59.7,44.0,29.91,SSE,161,5.4,5.4,56,0.00,,---,0.00,VWS V14.01,2013-04-13 23:37:00,
2013-04-13 19:42:00,59.7,44.0,29.91,ESE,120,8.1,8.1,56,0.00,,---,0.00,VWS V14.01,2013-04-13 23:42:00,
2013-04-13 19:47:00,59.7,44.0,29.91,ESE,110,5.4,7.2,56,0.00,,---,0.00,VWS V14.01,2013-04-13 23:47:00,
2013-04-13 19:52:00,59.5,43.4,29.91,ESE,122,3.4,4.0,55,0.00,,---,0.00,VWS V14.01,2013-04-13 23:52:00,
2013-04-13 19:57:00,59.5,43.4,29.91,East,87,5.4,5.4,55,0.00,,---,0.00,VWS V14.01,2013-04-13 23:57:00,
2013-04-13 20:02:00,59.4,42.7,29.91,ESE,116,4.0,4.9,54,0.00,,---,0.00,VWS V14.01,2013-04-14 00:02:00,
2013-04-13 20:07:00,59.4,43.2,29.91,ENE,78,10.7,10.7,55,0.00,,---,0.00,VWS V14.01,2013-04-14 00:07:00,
2013-04-13 20:12:00,59.4,43.2,29.91,East,91,0.0,4.5,55,0.00,,---,0.00,VWS V14.01,2013-04-14 00:12:00,
2013-04-13 20:17:00,59.4,43.2,29.91,ESE,117,8.1,8.1,55,0.00,,---,0.00,VWS V14.01,2013-04-14 00:17:00,
2013-04-13 20:22:00,59.2,43.0,29.91,East,91,0.0,0.0,55,0.00,,---,0.00,VWS V14.01,2013-04-14 00:22:00,
2013-04-13 20:27:00,59.2,43.0,29.91,ESE,102,0.0,5.4,55,0.00,,---,0.00,VWS V14.01,2013-04-14 00:27:00,
2013-04-13 20:32:00,59.2,43.0,29.91,East,89,0.0,0.0,55,0.00,,---,0.00,VWS V14.01,2013-04-14 00:32:00,
2013-04-13 20:37:00,59.2,43.0,29.94,East,80,0.0,0.0,55,0.00,,---,0.00,VWS V14.01,2013-04-14 00:37:00,
2013-04-13 20:42:00,59.2,43.0,29.94,ESE,107,0.0,0.0,55,0.00,,---,0.00,VWS V14.01,2013-04-14 00:42:00,
2013-04-13 20:47:00,59.2,43.5,29.94,ENE,73,0.0,0.0,56,0.00,,---,0.00,VWS V14.01,2013-04-14 00:47:00,
2013-04-13 20:52:00,59.2,43.5,29.94,ESE,112,0.0,0.0,56,0.00,,---,0.00,VWS V14.01,2013-04-14 00:52:00,
2013-04-13 20:57:00,59.0,43.3,29.94,East,89,0.0,0.0,56,0.00,,---,0.00,VWS V14.01,2013-04-14 00:57:00,
2013-04-13 21:02:00,59.0,43.8,29.94,East,89,0.0,0.0,57,0.00,,---,0.00,VWS V14.01,2013-04-14 01:02:00,
2013-04-13 21:07:00,58.8,44.1,29.94,ESE,102,0.0,0.0,58,0.00,,---,0.00,VWS V14.01,2013-04-14 01:07:00,
2013-04-13 21:13:00,58.8,44.5,29.94,ENE,59,0.0,0.0,59,0.00,,---,0.00,VWS V14.01,2013-04-14 01:13:00,
2013-04-13 21:18:00,58.6,44.4,29.94,East,91,0.0,0.0,59,0.00,,---,0.00,VWS V14.01,2013-04-14 01:18:00,
2013-04-13 21:23:00,58.6,44.8,29.94,East,88,0.0,0.0,60,0.00,,---,0.00,VWS V14.01,2013-04-14 01:23:00,
2013-04-13 21:28:00,58.5,44.6,29.94,East,88,0.0,0.0,60,0.00,,---,0.00,VWS V14.01,2013-04-14 01:28:00,
2013-04-13 21:33:00,58.5,45.1,29.94,East,89,0.0,0.0,61,0.00,,---,0.00,VWS V14.01,2013-04-14 01:33:00,
2013-04-13 21:38:00,58.5,45.5,29.94,East,88,0.0,0.0,62,0.00,,---,0.00,VWS V14.01,2013-04-14 01:38:00,
2013-04-13 21:43:00,58.3,45.3,29.94,East,89,0.0,0.0,62,0.00,,---,0.00,VWS V14.01,2013-04-14 01:43:00,
2013-04-13 21:48:00,58.3,45.3,29.94,East,91,0.0,0.0,62,0.00,,---,0.00,VWS V14.01,2013-04-14 01:48:00,
2013-04-13 21:52:00,58.1,45.6,29.94,East,99,0.0,0.0,63,0.00,,---,0.00,VWS V14.01,2013-04-14 01:52:00,
2013-04-13 21:57:00,58.1,46.0,29.94,ESE,109,0.0,0.0,64,0.00,,---,0.00,VWS V14.01,2013-04-14 01:57:00,
2013-04-13 22:02:00,58.1,46.0,29.94,ESE,110,0.0,0.0,64,0.00,,---,0.00,VWS V14.01,2013-04-14 02:02:00,
2013-04-13 22:07:00,58.1,46.4,29.94,ENE,75,0.0,0.0,65,0.00,,---,0.00,VWS V14.01,2013-04-14 02:07:00,
2013-04-13 22:12:00,58.1,46.4,29.94,ESE,106,0.0,0.0,65,0.00,,---,0.00,VWS V14.01,2013-04-14 02:12:00,
2013-04-13 22:17:00,58.1,46.4,29.94,ESE,106,0.0,0.0,65,0.00,,---,0.00,VWS V14.01,2013-04-14 02:17:00,
2013-04-13 22:22:00,57.9,46.6,29.94,ESE,106,0.0,0.0,66,0.00,,---,0.00,VWS V14.01,2013-04-14 02:22:00,
2013-04-13 22:27:00,57.9,46.6,29.94,ESE,106,0.0,0.0,66,0.00,,---,0.00,VWS V14.01,2013-04-14 02:27:00,
2013-04-13 22:32:00,57.9,46.6,29.94,ESE,106,0.0,0.0,66,0.00,,---,0.00,VWS V14.01,2013-04-14 02:32:00,
2013-04-13 22:37:00,57.9,46.6,29.94,ESE,106,0.0,0.0,66,0.00,,---,0.00,VWS V14.01,2013-04-14 02:37:00,
2013-04-13 22:42:00,57.7,46.9,29.94,ESE,106,0.0,0.0,67,0.00,,---,0.00,VWS V14.01,2013-04-14 02:42:00,
2013-04-13 22:47:00,57.6,46.7,29.94,ESE,106,0.0,0.0,67,0.00,,---,0.00,VWS V14.01,2013-04-14 02:47:00,
2013-04-13 22:52:00,57.6,46.7,29.97,ESE,106,0.0,0.0,67,0.00,,---,0.00,VWS V14.01,2013-04-14 02:52:00,
2013-04-13 22:57:00,57.4,46.5,29.97,ESE,106,0.0,0.0,67,0.00,,---,0.00,VWS V14.01,2013-04-14 02:57:00,
2013-04-13 23:02:00,57.2,46.8,29.97,ESE,106,0.0,0.0,68,0.00,,---,0.00,VWS V14.01,2013-04-14 03:02:00,
2013-04-13 23:07:00,57.2,46.8,29.97,ESE,106,0.0,0.0,68,0.00,,---,0.00,VWS V14.01,2013-04-14 03:07:00,
2013-04-13 23:12:00,57.2,47.1,29.97,ESE,106,0.0,0.0,69,0.00,,---,0.00,VWS V14.01,2013-04-14 03:12:00,
2013-04-13 23:17:00,57.0,47.3,29.97,ESE,106,0.0,0.0,70,0.00,,---,0.00,VWS V14.01,2013-04-14 03:17:00,
2013-04-13 23:22:00,56.8,47.2,29.97,ESE,106,0.0,0.0,70,0.00,,---,0.00,VWS V14.01,2013-04-14 03:22:00,
2013-04-13 23:27:00,56.8,47.2,29.97,ESE,106,0.0,0.0,70,0.00,,---,0.00,VWS V14.01,2013-04-14 03:27:00,
2013-04-13 23:32:00,57.0,47.7,29.97,ESE,106,0.0,0.0,71,0.00,,---,0.00,VWS V14.01,2013-04-14 03:32:00,
2013-04-13 23:37:00,56.8,47.5,29.97,ESE,106,0.0,0.0,71,0.00,,---,0.00,VWS V14.01,2013-04-14 03:37:00,
2013-04-13 23:42:00,56.8,47.5,29.97,ESE,106,0.0,0.0,71,0.00,,---,0.00,VWS V14.01,2013-04-14 03:42:00,
2013-04-13 23:47:00,56.7,47.4,29.97,ESE,106,0.0,0.0,71,0.00,,---,0.00,VWS V14.01,2013-04-14 03:47:00,
2013-04-13 23:53:00,56.7,47.8,29.97,ESE,106,0.0,0.0,72,0.00,,---,0.00,VWS V14.01,2013-04-14 03:53:00,
2013-04-13 23:57:00,56.7,47.8,29.97,ESE,106,0.0,0.0,72,0.00,,---,0.00,VWS V14.01,2013-04-14 03:57:00,